Location: Val-d'Or
(48.1170°N, 77.7670°W)
Time: 13:36:51
(UTC-04:00)

ISS - Pass Details

Date: 19 May 2018
Orbit: 402 x 407 km, 51.6° (Epoch: 27 May)

Event Time Altitude Azimuth Distance (km) Brightness Sun altitude
Exits shadow 01:07:45 51° 19° (NNE) 518 -3.0 -22.1°
Drops below altitude 10° 01:10:34 10° 66° (ENE) 1,459 -0.7 -22.1°
Sets 01:12:40 0° 71° (ENE) 2,319 0.3 -22.1°
